Wind_Gust
10 11 10 10 9 12 8 8 7 9 9 12 14 10 21 10 15 10 9 10 21 15 20 23 22 27 30 27 27 21 20 18 10 15 13 20 17 23 21 18 16 15 16 13 11 9 10 12 12 13 12 11 11 13 14 15 16 15 15 15 15 14 14 13 14 14 15 16 17 15 15 16 15 14 12 13 13 13 14 15 14 14 15 16 18 18 17 16 17 18 19 19 22 22 22 22 22
11 10 9 10 12 4 7 6 7 5 8 9 22 12 23 19 9 7 8 17 15 19 19 20 22 29 29 23 22 30 28 26 24 31 26 21 20 22 20 16 15 16 13 13 10 9 9 11 12 13 12 13 12 12 13 14 15 15 16 16 16 16 15 15 15 15 15 15 17 18 15 15 16 14 13 13 12 13 14 13 14 15 13 15 16 18 17 16 16 16 19 20 21 22 22 22 21
9 10 14 13 11 8 11 6 8 5 7 14 21 21 18 14 9 19 20 19 20 20 21 23 27 22 23 23 28 25 21 19 25 21 25 20 20 13 15 16 14 13 12 11 10 9 8 10 11 12 12 12 12 12 13 13 14 15 15 15 16 17 17 16 15 15 15 15 16 17 17 14 15 15 15 13 11 11 13 13 14 14 13 13 15 17 17 16 15 15 16 20 20 22 22 21 20
7 7 9 7 7 7 6 6 5 8 9 16 19 11 26 10 16 24 23 21 16 18 22 26 27 16 27 30 26 24 22 20 16 18 22 17 21 16 14 15 13 13 11 9 9 8 7 12 11 12 11 11 12 13 14 15 14 15 16 15 14 15 16 16 16 15 15 15 16 16 16 15 14 15 15 14 11 11 13 14 13 13 11 13 13 14 16 14 14 14 16 19 21 22 22 21 19
6 9 6 11 7 8 7 8 8 10 17 17 14 17 15 18 17 18 17 15 12 17 24 28 32 21 23 21 17 25 17 23 26 21 24 18 18 15 15 13 14 14 12 8 10 8 7 13 12 10 11 12 12 13 14 15 15 15 16 16 16 15 16 17 17 16 16 16 16 16 16 16 14 14 16 15 13 11 12 12 11 11 10 9 10 10 11 10 12 13 15 18 21 22 21 20 18
10 8 9 9 11 11 12 9 9 13 18 11 15 17 5 20 18 11 12 10 12 13 21 19 27 23 31 25 20 19 9 17 21 20 21 13 19 17 16 13 14 17 12 9 10 8 8 13 11 11 10 10 10 12 13 14 15 15 17 16 16 14 14 16 16 16 16 17 16 16 15 16 15 14 15 16 14 12 10 11 10 10 9 10 9 9 10 10 9 12 15 17 20 21 20 18 17
10 5 8 8 13 8 6 7 12 12 20 14 24 19 5 16 15 15 14 15 11 24 19 28 29 24 27 22 27 25 22 18 19 21 17 19 18 16 15 14 13 14 13 10 9 9 8 11 11 12 12 10 8 10 11 11 13 15 17 15 15 14 15 15 16 15 16 16 16 16 16 15 16 14 14 16 16 14 12 10 11 10 11 9 10 11 12 11 11 14 16 17 19 19 18 17 15
12 6 7 8 8 10 8 11 14 14 19 14 13 24 10 13 13 13 12 4 8 11 18 23 22 34 18 13 28 22 26 29 28 27 23 17 16 16 16 16 15 13 12 10 9 8 12 9 12 14 15 13 13 12 12 11 10 11 13 12 12 14 15 16 15 15 15 15 17 17 17 16 15 15 14 15 16 15 13 11 11 12 12 13 13 14 13 13 15 16 17 18 18 17 17 16 14
11 10 7 8 9 12 9 12 17 15 24 21 15 16 15 10 10 15 9 11 8 9 22 26 29 34 21 21 23 22 31 27 26 26 23 19 16 14 16 14 15 14 13 12 10 8 7 11 13 16 18 18 17 17 13 12 11 10 11 12 11 11 12 13 16 15 14 14 15 16 17 16 15 15 15 14 16 14 13 13 12 12 13 14 14 14 14 13 14 16 16 17 18 17 15 14 12
12 13 7 11 7 9 10 12 11 16 25 19 18 9 14 11 7 7 11 11 12 13 24 26 29 31 22 24 21 14 25 24 27 26 23 18 15 12 14 13 11 13 13 13 10 9 7 14 15 17 17 18 17 16 13 11 11 13 14 13 10 14 12 13 11 13 14 13 13 14 15 16 15 15 16 16 15 15 14 13 13 13 13 14 15 14 14 13 14 15 16 16 16 16 14 12 10
15 13 8 10 7 11 11 12 13 16 20 15 16 11 14 12 4 9 6 15 12 26 27 28 37 28 23 18 18 16 22 25 25 27 23 18 16 14 12 12 11 10 13 12 11 9 9 10 18 17 17 17 15 15 13 10 12 11 12 14 14 13 13 13 14 13 12 13 13 14 15 15 15 15 15 16 15 15 14 13 14 14 13 15 15 14 13 14 13 13 14 14 13 12 10 10 7
9 11 12 8 10 10 11 15 17 18 18 17 6 6 5 6 6 7 14 12 19 14 23 21 23 33 23 26 21 18 21 25 26 25 22 19 15 12 11 10 10 11 10 11 12 9 9 9 10 17 16 15 14 15 13 12 10 11 12 12 11 13 13 13 13 13 13 12 13 14 14 15 15 15 15 14 13 14 14 14 14 14 14 14 14 14 13 13 12 11 13 13 12 11 10 9 6
12 8 7 11 11 8 15 16 17 18 15 17 11 13 14 7 7 2 6 17 14 11 13 30 30 25 25 17 18 22 21 18 24 25 23 17 14 13 11 12 12 13 12 10 11 10 9 9 12 11 13 16 14 14 14 13 10 11 12 12 12 13 14 13 14 13 13 14 13 13 14 14 15 15 15 14 14 13 14 13 12 13 14 14 14 13 12 12 12 13 13 14 13 11 10 9 5
13 10 8 12 9 13 16 15 15 13 14 8 11 10 12 8 6 7 16 16 13 14 17 30 25 27 24 26 18 19 21 19 24 23 21 18 14 14 12 11 10 12 11 12 11 10 9 10 12 11 11 11 10 12 13 12 10 10 12 12 11 12 13 13 13 13 13 13 13 13 14 14 15 15 14 14 13 12 12 12 12 13 15 14 14 13 12 12 12 13 13 13 13 11 11 10 6
13 8 11 13 12 9 9 18 12 16 11 17 11 12 12 6 14 18 11 21 20 23 28 26 34 25 26 26 21 21 22 20 17 16 16 14 13 11 12 11 10 10 12 12 11 9 9 10 11 10 10 11 11 9 9 11 11 10 11 12 11 10 11 13 13 12 13 14 14 13 14 15 14 15 14 14 13 13 13 12 12 13 14 14 13 13 12 12 12 12 13 12 11 11 11 10 7
12 10 12 9 11 8 16 14 10 15 13 5 9 12 10 10 8 16 22 22 15 12 11 16 10 14 26 19 25 25 23 22 17 15 16 14 11 10 11 7 6 8 9 10 11 12 12 11 10 10 10 11 9 9 10 8 11 11 10 10 10 10 10 9 10 13 12 12 13 12 12 13 13 13 16 13 14 13 13 10 12 13 15 15 13 13 12 13 13 13 10 9 10 11 10 9 8
9 11 10 10 13 10 12 12 6 17 7 12 8 6 7 16 20 22 15 19 21 20 25 27 22 18 19 26 28 26 20 18 17 17 14 11 12 11 9 9 10 7 6 6 10 11 11 12 10 9 10 10 11 10 10 9 10 12 8 10 10 9 11 15 10 12 10 10 10 10 9 9 8 9 10 8 12 12 12 11 11 14 15 15 14 13 13 12 13 12 10 8 9 11 10 10 8
9 14 12 10 13 15 15 16 6 12 17 10 7 9 7 12 7 8 9 16 21 22 25 28 30 27 29 29 25 24 22 20 17 17 15 14 12 11 10 6 9 8 8 8 5 6 9 11 10 10 11 10 11 11 9 9 9 10 8 7 7 8 7 8 8 7 9 6 8 8 6 6 8 7 8 10 7 11 13 11 11 14 15 15 14 13 13 13 12 11 10 9 8 8 9 7 5
11 11 10 14 12 23 17 13 17 15 6 8 7 7 6 10 10 6 13 14 16 26 27 28 27 24 22 22 23 20 18 16 15 16 16 13 13 14 11 8 7 9 8 8 8 7 6 8 10 10 11 10 10 10 10 8 7 8 8 8 8 6 9 8 5 6 7 7 6 7 6 6 6 7 5 8 6 9 12 12 11 14 13 15 14 12 12 11 12 10 10 9 8 8 6 5 6
12 8 11 14 15 18 20 16 12 8 10 5 4 14 4 11 10 8 7 12 13 20 28 24 28 24 22 20 19 17 13 14 13 12 12 13 12 11 10 9 9 7 6 7 6 8 7 9 10 11 10 10 11 9 8 7 7 7 7 7 7 7 7 8 5 6 9 10 11 8 6 9 10 8 12 13 10 8 7 10 11 12 14 13 13 9 9 8 11 12 10 7 5 5 5 3 6
12 14 12 19 15 21 11 14 10 5 10 9 13 7 11 11 11 11 7 6 9 15 29 30 29 29 27 22 17 14 13 9 8 11 14 14 9 9 13 12 13 10 9 7 9 5 5 7 8 10 12 10 12 11 12 10 9 9 8 8 10 10 9 8 8 9 9 8 6 9 10 8 10 8 8 8 8 6 7 6 9 7 7 7 8 5 6 7 7 7 8 6 6 6 6 8 6
8 17 19 17 19 18 13 17 20 16 10 4 13 5 4 5 5 9 10 6 3 5 13 30 32 28 29 23 18 14 10 8 11 13 13 14 14 10 10 11 9 9 8 9 5 2 1 7 8 8 8 10 10 10 11 12 13 10 8 9 11 9 9 9 10 13 13 9 10 9 8 10 7 8 7 7 8 9 7 9 8 8 7 7 7 7 7 6 7 7 7 10 9 8 10 9 8
15 12 14 16 18 18 4 19 19 14 17 8 6 6 4 7 5 6 4 7 5 16 18 23 30 29 24 19 18 13 10 10 11 14 15 13 11 10 12 11 12 12 9 6 4 2 3 6 7 10 9 9 10 11 12 11 10 9 10 11 11 10 10 11 10 9 9 10 9 7 7 8 7 6 7 8 6 7 8 8 10 8 8 8 8 7 8 8 8 8 8 9 10 9 10 10 10
14 15 12 19 15 10 13 10 8 11 11 11 13 4 6 10 5 8 7 16 22 31 37 38 31 25 22 18 13 14 12 11 12 12 13 12 12 8 10 12 10 9 9 5 7 7 9 11 9 9 9 9 10 12 11 11 9 10 9 11 10 11 11 9 8 8 7 11 7 6 4 3 6 6 6 7 6 5 7 6 11 9 7 8 11 8 10 9 9 8 8 9 9 10 12 12 14
14 19 10 12 8 10 11 10 5 3 7 7 16 7 5 6 7 12 10 13 22 33 31 30 27 24 18 17 15 12 11 11 13 11 9 11 11 12 10 11 10 11 9 6 6 8 7 8 10 12 11 7 9 9 11 10 9 8 8 10 10 11 10 8 6 6 7 9 6 6 5 6 3 5 6 7 7 7 8 9 13 10 3 5 10 10 8 11 10 9 9 11 9 10 9 9 14
14 12 5 9 7 4 15 11 4 3 4 5 5 6 9 7 8 5 6 11 14 26 32 30 25 21 21 17 15 12 12 13 13 14 14 11 13 15 10 12 11 10 6 6 7 5 6 7 10 10 7 10 7 9 11 10 10 9 8 9 8 11 10 8 7 8 6 7 6 6 4 5 6 6 5 6 6 6 8 8 9 10 2 10 10 8 7 9 12 10 9 10 10 10 13 10 13
11 9 13 13 6 4 4 9 5 7 9 2 6 4 8 9 7 6 4 8 8 20 29 28 25 21 19 16 15 12 14 13 16 15 14 11 12 14 11 10 11 7 8 7 6 5 7 11 10 9 8 7 6 10 8 11 11 9 10 10 10 10 11 14 10 5 7 8 6 5 4 3 4 5 5 5 5 8 8 10 11 11 7 6 6 4 6 6 9 8 10 11 11 11 13 13 12
7 6 5 13 9 9 3 6 4 4 9 7 3 5 4 10 9 10 6 11 10 10 20 23 23 20 21 17 14 10 13 12 16 16 16 13 14 14 10 13 9 7 8 7 8 10 12 10 9 6 6 7 10 7 8 8 8 12 10 9 10 10 10 10 10 7 7 8 8 8 6 4 4 3 4 6 7 7 7 6 10 11 9 6 6 5 3 4 4 11 12 9 9 9 5 10 9
9 3 9 6 5 9 8 7 10 6 9 8 5 5 9 10 11 11 12 11 10 11 12 22 20 20 20 18 14 13 17 15 15 15 13 13 12 12 13 11 12 9 6 9 9 10 9 7 9 6 7 8 10 9 9 8 8 12 11 9 9 10 11 11 11 9 9 10 11 10 6 7 8 7 4 4 3 8 8 6 4 6 9 6 5 8 5 3 4 8 11 10 11 10 2 8 8
6 8 7 7 8 11 12 11 8 8 9 12 12 10 9 13 16 12 17 13 11 9 7 15 20 20 21 18 15 14 17 16 15 16 14 13 12 13 15 11 11 11 10 8 9 8 6 7 6 5 8 9 8 9 10 11 10 8 9 8 6 7 10 12 11 8 7 9 12 10 7 8 10 10 7 6 3 2 4 4 3 4 3 9 9 7 9 8 6 8 9 12 12 10 3 9 7
5 8 6 11 7 15 15 20 14 12 10 13 11 8 11 14 16 19 10 18 18 10 7 7 20 20 21 19 18 18 18 18 18 17 13 13 13 16 16 12 13 11 10 8 9 8 7 7 7 7 7 8 9 8 8 7 7 9 9 6 5 4 6 8 6 7 9 9 12 9 7 5 8 11 9 9 7 6 6 8 8 6 9 10 9 12 10 10 7 8 9 9 11 6 3 4 11
9 8 13 7 11 17 17 20 18 21 13 18 14 8 16 14 19 19 11 21 17 14 10 8 16 22 19 18 20 19 18 18 18 19 15 14 17 17 17 16 15 13 11 9 9 7 8 6 8 8 7 7 6 6 6 9 11 7 5 6 5 8 9 6 6 6 6 9 10 8 7 6 8 12 10 10 9 8 6 9 10 8 10 8 7 7 8 7 3 5 9 7 8 6 3 3 6
10 10 5 10 13 19 18 17 21 21 19 12 18 12 9 6 14 14 25 19 18 13 9 7 13 19 20 18 18 18 19 16 19 22 14 17 18 18 18 17 18 15 12 11 10 8 8 7 8 8 8 7 6 4 3 5 8 6 6 6 7 7 9 6 6 6 11 12 10 9 8 5 7 7 8 8 9 9 8 8 8 10 8 9 9 7 7 6 4 6 8 9 8 9 5 4 7
12 12 17 13 12 10 17 16 18 18 15 13 16 12 10 7 6 8 10 13 11 8 7 9 11 17 18 16 18 20 20 20 22 22 17 19 19 17 17 18 17 15 13 13 9 11 11 9 8 7 7 6 6 7 5 5 6 6 6 8 7 9 5 8 6 8 12 10 10 10 8 6 6 7 8 6 5 9 11 13 9 5 4 6 5 10 7 6 5 8 7 6 8 9 8 3 2
4 4 7 12 11 12 9 13 17 17 19 13 12 10 8 10 5 9 13 12 11 11 7 11 11 15 18 15 17 20 19 20 21 22 21 20 20 17 21 19 17 15 14 12 10 8 9 9 7 7 6 6 5 5 4 5 4 5 3 9 9 6 8 9 11 14 10 7 8 9 7 8 7 7 4 7 4 2 9 10 10 7 4 8 12 9 10 7 9 11 8 7 8 8 5 4 4
7 7 9 8 6 7 11 15 21 24 16 14 15 18 14 10 6 10 12 13 16 13 8 7 11 14 18 14 15 21 20 19 18 22 22 23 22 21 23 21 19 17 16 14 12 9 9 7 6 6 6 7 5 3 2 4 5 9 7 7 9 5 6 8 10 10 8 9 8 8 6 8 7 5 4 3 5 5 4 7 9 10 9 3 9 15 13 9 7 6 7 9 10 12 9 2 5
3 6 8 10 13 13 11 16 11 5 11 13 6 6 7 11 7 4 7 6 8 12 13 9 8 14 16 16 15 16 19 20 19 26 26 25 25 24 25 24 22 19 17 17 14 11 10 12 10 8 8 6 7 4 3 4 4 9 5 6 8 6 6 6 8 8 8 6 6 6 5 5 6 4 1 3 2 2 4 3 4 4 4 6 5 5 6 6 4 4 3 5 9 12 11 3 4
4 4 4 11 10 14 5 7 8 6 8 3 4 2 6 5 5 11 5 9 10 12 10 11 9 11 14 16 15 15 14 13 13 18 19 22 24 22 24 24 22 24 20 20 19 17 11 11 11 9 8 7 5 7 7 7 5 9 7 5 7 9 9 9 6 5 8 5 4 4 6 8 8 6 4 1 4 3 3 4 6 5 5 4 4 7 7 6 6 7 8 7 7 8 10 3 4
6 2 3 9 13 12 12 7 12 12 8 6 8 5 6 6 9 10 16 7 11 13 15 15 17 11 12 15 15 14 12 14 20 23 18 24 23 23 23 22 23 24 23 22 19 17 13 14 12 8 10 7 6 7 9 9 6 6 6 7 7 7 4 6 7 4 7 6 5 6 6 7 7 6 7 7 4 3 5 4 6 7 5 5 4 4 4 5 10 10 10 7 8 9 7 4 5
3 8 7 6 9 11 10 9 7 7 8 5 5 7 10 8 7 11 11 17 11 14 17 14 13 13 13 13 13 14 13 11 22 26 23 25 26 26 21 21 22 20 20 18 18 18 17 15 12 12 11 6 8 6 9 8 8 7 7 8 5 8 7 6 6 3 6 4 7 8 6 5 5 3 5 7 6 6 6 7 6 6 2 6 6 5 4 5 5 7 7 5 8 11 10 6 8
7 3 5 8 9 11 7 5 4 3 4 4 5 8 13 8 15 19 16 16 17 14 17 13 9 10 11 8 8 12 13 13 20 22 21 20 22 24 25 23 21 21 20 19 19 19 18 17 16 15 12 9 7 7 10 9 9 7 5 4 5 5 5 5 6 5 3 5 8 6 5 4 1 4 3 5 4 6 6 5 6 5 7 7 3 2 3 7 7 8 7 6 10 12 12 13 7
6 6 7 8 7 17 14 2 5 10 14 6 4 13 14 11 16 21 19 14 13 12 21 17 15 12 8 8 9 6 6 8 17 26 27 25 25 20 19 20 20 20 22 20 19 16 15 15 16 14 12 9 8 8 10 12 10 10 7 6 4 4 5 8 7 7 4 5 5 2 4 5 4 1 1 2 6 5 7 6 5 6 5 8 7 5 5 4 4 5 9 10 9 9 12 8 16
4 11 5 10 14 13 12 9 5 4 8 11 12 12 22 12 10 10 18 14 18 10 17 17 14 16 16 16 13 12 11 6 7 7 16 23 22 22 21 22 22 22 20 19 17 15 15 14 15 15 14 12 11 10 10 11 9 9 10 10 9 9 8 5 4 5 8 6 5 4 3 4 6 5 3 2 2 4 4 5 6 6 5 5 5 5 5 6 8 6 7 7 10 10 8 14 14
12 5 3 5 7 16 20 10 6 11 8 10 7 12 12 17 23 14 8 12 12 14 16 16 17 16 18 16 18 17 18 13 13 13 21 26 26 26 26 24 23 25 20 19 18 16 16 16 15 15 13 14 12 12 11 11 12 10 9 8 10 10 11 9 7 5 6 6 8 6 3 3 1 5 6 3 2 1 2 4 4 5 6 7 7 8 5 6 7 7 5 6 9 9 11 13 14
11 3 7 4 6 9 8 4 2 6 5 15 7 9 13 13 18 16 13 6 15 15 20 20 18 14 18 19 20 20 19 16 15 14 21 26 29 25 25 25 21 20 21 21 20 18 16 15 15 15 14 15 13 12 12 10 10 11 11 10 6 7 10 10 7 6 6 6 6 3 2 2 3 1 3 5 4 1 1 1 3 4 4 5 6 8 7 7 6 8 10 10 6 4 7 9 11
9 5 4 3 7 7 7 6 3 7 9 13 9 9 18 16 14 18 12 14 12 20 19 17 17 18 14 16 15 18 19 17 16 18 24 24 27 28 26 25 22 21 21 19 17 16 15 14 16 17 14 15 14 13 13 10 8 10 9 7 8 8 9 7 8 8 6 6 5 6 5 4 5 5 2 3 3 4 2 1 1 2 3 5 6 6 7 9 9 7 7 8 9 8 7 8 11
6 6 5 5 5 6 5 3 9 9 12 14 9 12 12 21 10 13 9 10 21 17 12 15 18 15 13 10 10 14 18 17 17 15 17 24 23 23 20 21 20 16 16 20 18 18 15 16 18 17 16 15 16 16 13 12 8 11 11 10 9 10 9 10 8 8 8 6 6 7 6 6 6 9 5 5 2 2 4 2 1 1 2 4 6 8 7 7 7 6 8 9 10 10 10 8 9
8 6 5 3 11 7 7 7 7 13 17 15 12 13 7 18 11 12 13 10 6 7 7 14 12 13 15 11 11 12 13 15 16 15 17 19 18 16 20 20 18 17 16 19 18 18 16 16 18 16 14 15 15 16 13 12 9 12 10 10 10 12 10 11 12 11 10 9 7 9 6 4 4 4 6 5 6 6 5 4 3 3 3 3 5 5 8 9 7 6 8 10 10 11 11 11 8
3 6 6 5 9 7 13 11 13 14 22 12 7 11 17 17 19 12 11 21 19 8 7 7 4 5 11 13 13 14 14 15 16 17 18 17 21 22 22 20 18 17 20 19 22 20 18 16 18 18 15 15 16 15 14 12 9 11 11 11 9 10 10 11 11 11 9 11 9 8 7 9 7 8 8 4 3 4 5 3 1 2 3 3 4 3 5 6 10 11 10 8 10 9 10 10 11
6 9 9 8 12 10 12 10 15 12 10 6 5 5 17 10 16 8 12 11 7 7 7 7 8 9 11 12 10 11 12 17 15 18 21 19 23 23 26 25 24 23 22 24 22 21 19 17 19 20 16 16 15 15 14 12 11 10 9 10 10 10 9 10 9 11 10 10 10 8 9 9 8 7 6 6 5 5 3 2 2 1 2 3 4 5 5 5 5 7 9 11 10 10 10 11 12
15 10 14 16 13 13 11 9 11 8 6 5 6 11 14 3 14 10 8 7 9 6 6 7 10 11 9 11 10 10 11 10 16 20 23 21 24 23 25 27 26 26 25 24 23 22 21 18 21 20 16 14 16 17 13 14 12 10 8 10 10 8 11 9 8 9 10 9 8 9 8 6 6 4 5 4 3 3 3 2 1 1 2 3 4 5 6 5 5 6 6 8 11 10 11 11 12
11 9 13 11 17 13 23 12 8 11 12 18 9 14 5 9 15 20 18 15 15 12 15 5 4 6 4 4 8 9 10 14 16 18 16 20 25 27 26 25 25 24 25 24 24 24 23 22 21 23 19 18 19 16 16 16 13 11 9 10 10 10 8 7 7 6 9 9 7 9 8 6 6 5 3 3 2 5 4 2 2 3 4 5 5 3 3 4 5 7 8 7 10 11 13 12 12
10 10 11 14 9 13 11 9 5 7 10 22 11 15 21 13 11 13 12 11 16 10 8 10 3 4 5 8 8 7 3 2 2 8 17 23 17 21 24 21 18 20 21 23 24 24 24 22 21 20 19 18 18 19 17 15 14 12 11 11 10 9 10 9 10 7 9 8 7 7 7 6 4 4 3 4 1 1 3 2 2 3 3 4 5 5 5 4 5 5 6 6 7 8 11 11 11
17 17 15 15 17 11 13 16 8 11 15 23 7 8 10 6 21 8 7 8 17 19 15 6 11 9 11 9 8 7 3 3 8 4 9 20 21 21 21 20 21 23 23 20 21 19 20 22 21 21 20 20 18 18 17 15 15 14 12 12 11 12 12 10 9 9 8 9 7 6 5 3 4 5 4 3 2 1 1 3 4 6 7 6 7 6 6 6 5 4 5 5 6 6 10 12 13
19 19 7 12 11 11 7 9 9 8 12 16 8 8 12 10 19 9 11 18 13 12 4 6 7 6 5 11 7 9 9 8 4 5 12 20 15 19 19 18 21 21 20 21 21 19 18 15 18 20 20 21 21 20 16 15 15 15 14 14 13 12 10 10 8 9 9 10 8 7 6 6 4 4 4 2 1 2 4 5 4 4 4 5 4 5 5 5 5 6 6 7 5 6 8 10 11
12 6 12 3 8 9 9 11 7 8 10 7 14 6 20 14 13 12 16 5 10 12 14 17 16 19 17 10 7 12 15 12 6 5 6 22 21 20 18 19 20 21 20 20 20 19 19 18 17 17 15 16 16 16 17 17 16 14 13 11 10 10 10 10 8 9 10 9 8 7 7 5 7 5 4 3 3 4 5 5 5 3 3 4 5 5 5 5 5 5 6 7 7 5 7 10 12
12 14 11 10 8 6 9 10 10 9 10 8 10 14 14 9 4 4 4 7 8 11 13 13 12 14 14 13 15 16 11 18 21 18 4 15 20 18 21 20 22 22 20 20 21 21 21 19 18 18 18 18 19 19 18 18 16 15 14 14 13 11 11 10 8 8 9 8 7 7 7 6 5 5 5 4 5 7 7 6 5 5 5 6 6 6 5 4 4 5 5 5 6 7 9 10 10
9 10 14 9 6 12 10 24 11 10 12 14 9 24 22 14 14 18 9 7 12 11 15 14 12 14 12 14 12 11 11 12 18 18 14 5 11 19 17 17 15 16 17 19 20 19 20 20 21 21 21 21 22 22 21 18 17 16 16 15 13 11 11 10 9 8 9 8 7 7 6 5 5 6 5 6 6 6 6 6 6 6 6 6 6 6 6 4 5 5 6 7 9 10 10 11 12
Wind_Speed
5 6 5 6 3 4 3 1 1 1 1 6 5 3 6 1 7 3 5 6 10 4 10 15 15 13 14 12 17 14 10 6 4 6 4 2 9 8 12 12 11 10 10 8 6 6 7 9 10 10 9 9 10 11 11 13 13 13 12 12 12 12 12 11 12 12 12 13 14 13 12 13 12 11 10 10 10 11 12 12 11 11 12 13 14 14 13 13 13 14 15 15 17 16 16 15 14
4 4 5 4 4 1 1 2 0 2 1 4 11 3 11 11 6 3 5 8 4 6 12 13 13 19 20 15 14 20 17 14 15 11 10 9 10 7 9 10 10 11 8 7 6 6 6 7 10 10 8 9 9 10 11 12 13 13 12 13 13 13 13 12 12 12 12 12 14 15 12 12 13 12 11 10 9 11 11 11 12 11 10 12 13 14 14 13 12 13 15 15 16 16 16 15 13
3 5 7 5 3 2 2 1 1 1 3 6 8 6 8 5 5 8 12 12 12 12 15 16 18 11 15 15 15 15 10 13 15 12 9 12 11 4 8 10 9 9 8 5 6 5 5 7 9 9 9 9 9 9 10 11 12 12 12 12 13 13 13 13 12 12 12 12 13 14 14 12 12 12 12 11 9 10 11 11 11 11 11 10 11 14 14 12 12 12 13 15 16 16 16 13 11
3 2 3 3 2 1 1 0 2 2 2 7 8 3 9 4 9 13 13 11 10 12 10 13 13 3 16 17 13 15 9 8 10 11 6 3 4 8 7 9 9 8 6 5 5 5 4 8 10 10 10 9 9 9 9 10 11 12 12 11 12 13 13 13 13 12 12 13 13 13 13 13 11 12 12 11 9 9 11 11 10 8 10 11 10 11 12 11 11 10 13 15 16 16 15 13 9
3 4 3 1 0 1 1 2 3 3 7 3 6 3 4 6 9 9 9 9 8 12 15 13 11 10 12 12 4 5 8 15 14 11 6 6 10 8 8 9 9 8 6 5 6 5 4 11 8 8 8 9 9 9 11 11 10 11 12 12 11 12 13 14 13 13 13 13 13 13 13 14 12 11 12 12 10 10 10 10 9 8 7 8 8 9 9 8 10 10 12 14 16 15 15 13 10
5 4 2 2 2 0 2 2 4 7 9 3 6 3 3 12 8 5 6 7 8 9 15 13 12 11 11 9 4 6 5 6 8 9 8 6 11 11 10 8 8 8 6 5 6 5 5 10 9 8 8 8 8 8 9 11 11 11 11 12 11 10 11 13 13 13 13 14 13 13 12 13 12 11 11 12 11 10 9 9 9 8 8 8 8 8 9 8 8 10 12 13 15 15 14 12 10
2 1 2 1 3 1 2 2 6 6 10 7 9 9 2 6 8 8 8 8 8 17 13 15 18 14 12 4 12 11 14 12 8 6 8 10 11 10 8 8 8 8 7 5 6 6 5 8 9 9 9 8 7 8 8 8 10 10 10 10 9 10 12 12 12 12 13 12 13 13 13 12 13 11 11 12 13 11 10 8 9 9 9 8 8 9 10 9 9 11 13 14 15 14 12 11 9
3 1 1 2 1 1 3 4 7 5 9 5 6 10 6 5 9 7 7 2 3 3 11 13 12 17 10 5 11 12 16 16 16 15 14 9 10 11 10 7 8 8 8 7 5 5 8 8 10 11 11 10 8 10 10 8 8 9 9 9 9 9 11 12 11 11 11 12 13 13 13 13 12 12 12 11 13 13 10 9 9 10 10 10 10 11 11 11 12 13 13 14 14 13 11 10 9
2 3 2 1 3 1 3 6 8 6 11 9 9 6 10 3 6 9 5 6 4 6 15 14 17 18 6 13 11 12 10 15 16 15 13 12 10 9 8 8 8 7 8 7 6 5 5 9 11 13 14 14 14 12 10 10 9 8 9 9 9 9 7 10 12 11 11 11 11 13 14 13 12 12 12 11 11 12 11 10 10 10 11 11 11 11 11 11 11 13 13 14 13 12 10 8 7
2 4 1 2 1 4 4 6 4 9 12 11 11 5 6 4 4 5 8 7 7 10 15 12 16 18 13 15 10 9 10 16 16 14 11 10 9 8 9 7 7 9 8 8 6 6 4 11 13 13 14 14 13 11 9 8 9 10 11 10 9 12 10 11 9 10 10 10 11 11 12 13 12 12 13 13 11 12 11 10 10 11 10 12 12 11 11 11 11 12 12 13 12 11 9 7 6
3 2 1 1 3 5 6 6 7 9 11 6 10 7 5 4 3 3 5 8 10 14 14 19 18 18 13 8 6 8 14 17 16 13 11 9 9 9 8 8 6 5 8 8 7 6 5 6 14 13 13 13 12 10 9 8 9 9 10 12 11 10 11 12 11 11 10 10 11 11 12 12 12 12 12 13 12 12 11 11 11 11 11 12 12 11 11 11 11 11 11 12 10 8 7 6 5
3 3 2 2 4 5 6 6 9 9 10 11 1 3 2 4 4 4 7 9 10 11 15 13 6 16 13 12 7 9 13 17 14 13 12 10 7 6 6 5 7 7 7 8 8 6 6 6 6 11 12 13 12 11 9 9 8 9 10 10 10 10 10 11 11 11 11 10 11 11 12 12 12 12 12 12 11 11 12 11 11 11 12 12 11 11 10 10 10 9 10 11 9 7 6 5 4
4 1 3 2 3 3 8 8 9 11 5 9 6 3 4 5 4 2 4 12 6 6 8 20 16 15 9 8 6 12 12 13 15 13 12 9 7 6 6 6 7 9 8 7 7 7 6 6 6 6 9 13 12 11 10 10 8 10 10 10 10 11 12 11 11 11 11 12 11 11 12 12 12 13 13 12 11 11 11 11 10 11 12 12 11 10 10 10 10 10 10 11 9 7 6 4 3
3 3 2 4 4 4 7 7 8 6 6 3 6 6 4 2 4 4 11 10 9 9 10 19 13 16 13 11 8 9 11 12 17 14 10 9 7 7 7 6 6 7 7 8 7 6 6 7 7 6 7 6 6 9 10 9 8 9 10 10 9 10 11 11 11 11 11 11 11 11 11 11 12 12 12 12 11 10 10 10 10 11 12 11 11 10 9 10 10 10 10 11 10 8 6 5 2
5 2 1 3 5 4 4 6 7 7 5 6 1 4 5 0 8 12 7 14 13 15 14 14 15 14 8 15 8 10 11 12 11 11 9 7 7 7 7 6 7 7 7 7 6 6 6 7 7 6 7 6 6 5 5 7 9 8 9 10 9 9 9 12 11 10 11 11 11 11 11 12 12 12 12 11 11 11 11 10 10 11 12 11 11 10 10 10 10 9 9 9 9 8 7 5 3
4 2 1 2 5 4 6 6 5 8 5 1 2 7 5 6 5 10 10 11 4 7 7 5 4 3 14 11 15 15 14 13 10 10 11 9 7 6 6 4 4 6 6 6 6 6 6 7 6 6 6 7 6 5 5 5 8 9 8 9 9 8 9 8 7 11 10 10 11 10 10 9 10 9 13 9 11 11 11 8 10 11 12 12 11 10 10 10 10 10 9 7 7 8 7 5 4
3 3 3 3 7 5 4 3 1 6 2 3 3 3 3 7 12 7 7 12 13 12 13 8 6 10 12 12 19 17 14 11 11 10 9 7 7 6 5 6 6 4 3 4 6 6 7 8 7 6 6 7 7 6 5 5 7 9 7 8 9 8 9 13 8 10 8 8 8 8 7 5 5 5 6 5 10 6 10 9 9 11 12 12 11 11 11 10 11 10 8 7 7 8 8 7 5
2 3 4 5 6 8 6 5 0 1 0 5 4 2 5 8 3 1 5 10 15 15 16 16 20 15 18 17 16 16 14 13 11 11 8 6 6 6 6 4 5 5 5 4 3 3 5 6 6 6 6 7 7 5 4 5 5 7 5 4 4 5 6 7 6 4 6 4 6 5 3 4 5 4 5 6 4 6 8 9 9 11 12 12 11 10 11 10 10 9 8 8 7 7 7 3 3
3 2 3 7 5 10 6 5 10 3 2 5 3 4 4 3 7 1 6 7 12 16 13 19 16 15 14 15 16 14 12 11 10 11 10 8 7 8 6 4 5 5 5 5 4 4 4 5 5 6 7 6 7 6 4 4 5 5 5 5 4 5 6 5 3 4 4 4 4 4 4 4 3 4 3 5 3 6 8 10 9 11 11 11 10 9 9 9 10 9 8 8 7 5 3 2 2
5 2 5 6 8 9 9 11 6 4 4 3 3 4 3 6 4 0 4 8 10 14 13 15 17 15 15 13 13 11 9 10 9 8 8 7 7 7 5 5 5 4 4 4 4 3 5 6 6 6 6 6 7 5 5 4 4 4 4 4 4 4 4 4 3 4 6 6 6 5 4 5 5 5 8 10 7 4 3 9 8 10 11 10 10 6 7 6 9 10 9 6 4 3 2 1 2
2 5 3 7 5 7 7 7 5 2 7 3 8 3 6 6 4 3 5 4 4 10 19 20 19 19 17 14 12 9 9 7 5 8 10 9 6 6 7 7 7 5 4 4 5 3 4 5 5 6 8 6 7 6 7 5 5 5 5 5 6 5 5 5 4 5 4 3 4 5 5 4 5 5 5 5 5 4 2 2 5 4 4 4 6 3 4 4 5 5 4 4 4 3 3 4 4
1 9 12 10 8 9 7 9 9 10 4 3 6 4 2 1 3 5 7 3 1 2 9 20 21 19 19 15 12 8 7 6 8 8 9 9 9 7 6 6 5 5 4 5 1 1 1 4 5 5 5 6 6 6 6 6 6 5 5 6 6 5 5 5 5 4 2 5 5 4 4 5 4 4 4 4 5 4 3 1 2 4 3 4 4 4 4 4 3 4 4 5 5 5 5 5 5
6 6 8 10 10 10 1 3 7 8 9 5 1 2 2 2 2 3 3 4 1 5 14 15 18 17 15 13 11 9 7 7 8 9 10 9 7 7 8 7 7 6 5 4 3 1 2 3 5 6 6 6 7 7 7 6 5 5 6 6 6 5 5 5 4 2 3 6 4 3 4 4 4 3 3 3 3 4 4 4 3 2 5 5 5 5 4 4 5 5 5 5 5 5 5 5 5
7 6 7 12 10 7 5 5 6 5 9 5 6 1 1 2 1 1 4 6 17 20 23 23 18 16 15 11 9 10 8 8 9 8 8 8 8 6 7 8 6 5 5 3 5 4 5 6 4 6 6 6 6 7 7 6 5 5 5 6 6 6 6 5 4 2 4 6 4 3 1 1 3 3 4 4 3 3 1 1 2 4 4 5 5 5 5 5 5 5 4 5 5 5 6 6 6
8 8 6 5 3 2 6 5 4 2 4 4 8 5 4 2 4 6 5 9 17 23 20 18 18 15 12 11 10 8 8 7 9 7 6 6 7 8 7 7 6 6 6 4 4 5 5 4 7 7 6 4 5 6 5 5 4 5 5 5 6 6 5 4 3 2 5 5 4 3 2 2 2 3 4 4 4 4 4 5 4 4 2 0 2 5 5 5 5 5 5 6 5 5 5 5 7
6 7 3 3 4 2 5 7 2 1 1 1 3 4 5 5 6 1 5 4 11 19 21 20 17 14 14 11 10 9 8 9 8 9 9 7 8 10 7 7 7 7 4 4 5 4 4 5 7 6 5 5 3 6 6 6 5 5 5 5 5 6 5 4 3 3 4 4 3 3 2 2 2 2 3 3 3 3 4 3 2 4 1 3 1 3 4 5 6 5 5 5 5 5 5 5 7
6 5 6 7 3 1 4 6 4 4 2 0 1 1 5 6 3 2 1 6 4 16 20 19 17 14 13 11 10 8 9 9 11 9 9 7 8 9 6 7 7 5 5 5 4 4 4 7 6 5 5 4 3 6 5 7 6 6 5 5 5 6 6 6 3 2 5 4 3 3 2 2 2 2 3 3 3 3 3 4 4 5 3 2 3 2 3 3 5 5 5 6 6 5 7 7 6
4 2 1 5 5 5 2 3 1 2 3 4 2 3 2 4 1 4 3 4 6 7 15 16 15 13 13 12 9 7 8 8 9 10 11 9 8 8 6 7 6 5 5 5 5 5 6 5 5 4 4 4 5 4 5 4 6 7 6 6 6 5 6 5 4 3 4 4 3 4 4 2 2 1 2 4 4 3 3 4 5 5 4 2 2 2 2 2 2 4 7 5 5 4 4 6 6
3 2 4 4 4 3 5 4 4 3 2 5 3 2 4 3 4 6 7 4 7 6 10 15 14 13 13 12 9 8 11 9 9 9 9 8 7 7 8 6 7 6 4 6 5 6 6 5 5 4 5 5 6 5 6 5 5 7 6 5 5 5 6 5 6 5 5 6 5 3 3 4 4 4 3 2 1 4 4 3 3 4 3 2 1 4 2 2 2 4 5 6 6 4 2 5 4
3 1 3 4 4 3 5 4 4 6 3 9 7 3 5 7 10 8 8 7 7 6 5 11 12 12 12 11 10 9 10 10 9 10 9 8 8 8 10 6 7 7 6 4 6 5 4 4 3 3 5 6 5 6 6 7 6 5 4 4 3 5 6 6 5 4 4 5 6 5 3 5 5 4 3 3 1 1 2 2 1 1 3 5 5 3 4 4 3 3 5 4 6 6 2 5 3
1 2 1 3 4 6 5 6 8 6 5 7 7 3 5 8 9 12 6 8 12 6 5 5 13 12 12 11 11 11 11 11 12 11 9 9 9 9 10 7 8 6 6 5 6 5 5 5 4 4 4 5 6 5 5 5 4 5 5 4 3 2 5 6 4 5 5 5 6 3 2 3 4 6 4 3 2 0 2 1 5 3 4 2 4 6 5 6 4 4 3 4 6 5 1 3 5
1 1 6 3 5 8 9 8 11 11 3 11 8 3 8 7 9 12 5 14 11 9 7 5 11 13 12 11 12 12 11 11 12 12 10 9 11 10 11 10 8 7 7 6 5 4 5 4 5 5 5 5 4 4 5 6 5 4 4 3 4 5 5 2 3 4 4 6 5 4 2 1 3 4 6 5 2 3 3 4 3 4 4 3 4 4 5 4 2 2 3 3 5 4 2 2 3
1 5 3 4 5 10 7 8 12 15 5 8 11 4 3 3 5 6 12 13 13 9 7 5 10 13 12 11 11 11 11 10 12 13 10 11 11 11 11 11 10 9 7 7 6 5 4 5 5 5 5 5 4 3 2 4 5 4 4 4 5 4 5 4 4 4 7 6 5 5 3 2 2 1 2 5 4 3 3 2 5 4 3 3 3 4 3 2 1 3 4 3 2 5 2 2 2
5 3 7 6 6 5 6 6 11 11 9 4 7 3 5 4 4 5 7 8 7 6 5 6 8 11 11 10 11 12 12 12 13 12 11 12 11 11 11 12 11 10 8 8 6 7 6 6 5 5 4 4 4 4 4 4 4 4 5 3 4 5 4 5 4 5 6 6 6 5 4 3 2 2 1 2 4 5 5 5 4 2 3 2 2 0 2 3 3 3 4 3 3 3 4 0 1
1 2 2 6 6 7 5 4 9 10 11 9 6 6 5 7 4 3 8 9 7 6 5 7 7 10 11 9 10 13 11 13 13 12 14 13 13 12 12 12 11 10 8 8 7 5 5 5 4 4 4 4 4 4 3 2 3 2 2 5 5 4 5 6 7 7 6 4 5 5 4 4 4 4 2 0 1 2 5 5 4 4 2 3 4 5 5 4 5 5 5 4 5 4 3 2 0
1 3 1 2 4 3 5 7 9 16 10 6 10 9 8 6 2 6 8 9 10 8 6 5 7 9 11 9 9 13 10 12 11 12 15 14 13 14 13 12 11 10 10 9 8 6 6 4 4 4 4 4 3 1 1 2 3 6 5 5 5 3 4 5 6 6 5 6 4 5 4 4 4 2 3 1 0 0 1 4 5 5 4 1 3 7 6 4 4 4 4 5 5 5 5 0 2
1 2 4 4 7 7 7 10 6 2 4 7 3 4 4 5 3 3 5 2 5 8 7 6 5 9 10 10 9 11 13 12 12 16 17 16 14 15 14 13 12 11 11 11 9 8 6 7 6 5 5 4 4 2 1 2 1 4 3 4 5 3 4 4 5 4 5 3 4 4 4 3 3 1 0 1 1 0 1 2 2 3 3 3 2 1 2 2 2 3 1 2 6 5 5 1 2
2 2 3 7 5 5 2 1 1 4 3 2 3 2 4 4 3 4 1 5 5 6 7 6 6 8 9 11 11 10 9 7 9 10 12 13 13 14 14 12 13 14 11 12 12 11 7 7 7 6 4 4 4 4 3 3 2 5 4 3 4 5 6 5 3 4 3 3 3 3 4 4 4 3 3 1 2 2 2 2 3 3 3 3 3 4 3 2 2 1 2 3 3 4 3 1 1
4 1 1 2 6 3 5 4 7 6 5 3 6 4 4 4 5 4 6 4 4 6 9 10 9 8 8 9 9 9 7 9 13 12 12 14 15 15 13 13 13 15 13 13 12 12 9 8 8 5 6 4 3 4 4 5 3 3 3 3 4 3 2 3 3 3 4 3 3 3 4 4 4 4 5 4 3 2 1 1 1 3 2 1 1 2 2 3 3 5 5 4 2 3 4 2 2
0 3 3 1 4 5 3 3 3 5 3 2 3 4 6 5 4 7 5 7 4 8 8 9 9 9 9 9 9 9 9 6 15 16 15 16 16 15 13 13 13 12 12 10 11 12 9 9 8 7 7 4 4 4 4 4 5 5 5 5 3 4 3 3 2 2 4 3 4 4 4 4 3 2 3 4 4 4 3 3 3 3 1 3 3 1 1 3 3 4 4 4 3 5 4 2 3
4 1 1 2 3 6 2 1 1 2 2 1 3 4 6 4 7 6 9 8 7 6 10 8 5 6 7 6 6 8 9 9 13 14 14 13 14 15 16 15 12 12 12 12 11 11 9 11 10 9 7 5 5 4 6 5 5 4 3 3 3 3 3 3 3 3 2 3 4 3 2 2 1 3 2 4 3 4 4 3 4 3 4 4 2 0 1 4 4 3 4 4 5 5 5 4 3
1 3 4 5 4 5 8 1 2 3 5 2 3 3 3 5 9 10 10 4 6 6 13 12 9 6 4 5 6 5 5 5 13 17 17 17 16 13 10 12 13 12 13 12 11 10 10 9 10 9 7 6 5 5 7 7 6 6 4 3 3 2 3 4 5 4 2 4 3 1 3 3 3 1 0 1 3 3 4 4 3 3 3 4 3 3 3 3 2 3 4 4 4 4 5 3 5
1 3 3 5 6 6 8 6 1 1 1 5 3 6 6 6 5 6 7 7 12 4 12 12 7 7 7 7 6 7 7 5 4 5 11 12 13 14 13 13 13 13 13 11 10 9 10 9 10 9 8 7 6 6 6 7 5 5 6 6 5 5 5 2 2 3 5 3 3 3 3 3 4 3 1 1 1 3 3 4 4 4 3 3 3 2 3 3 4 3 3 3 5 5 3 5 6
3 2 3 4 3 6 12 7 4 3 2 3 2 4 3 5 10 7 5 7 7 8 9 11 11 10 9 9 8 7 9 8 8 9 15 16 15 16 17 16 14 15 13 11 10 9 10 9 10 9 8 8 7 7 7 7 7 6 5 5 5 5 6 5 4 3 4 4 4 3 2 2 1 3 3 2 1 0 1 3 3 3 3 4 4 4 3 3 4 3 3 3 4 4 5 6 6
3 2 4 3 2 2 4 1 1 1 2 7 3 5 1 3 8 9 6 2 6 9 9 12 11 10 12 12 12 13 12 10 9 9 14 18 18 16 16 15 14 13 12 13 12 10 10 9 10 9 9 9 8 8 8 6 6 7 7 6 4 4 6 6 4 4 4 4 4 3 2 1 2 1 3 3 2 1 0 1 2 3 3 4 3 5 4 4 4 5 6 6 4 2 3 5 4
4 3 2 1 4 2 1 3 2 2 0 6 5 2 3 6 6 8 7 7 6 11 13 10 10 12 9 11 10 11 11 10 10 11 16 16 18 18 17 16 14 13 13 12 11 9 9 9 10 11 9 9 9 8 8 6 6 6 6 5 5 5 5 4 5 4 4 4 4 4 2 2 2 2 1 3 2 2 1 0 0 1 2 3 3 4 4 5 4 4 3 4 5 5 4 4 6
4 4 1 2 1 3 2 0 1 3 4 7 6 6 5 6 4 7 4 3 8 10 6 8 11 10 9 7 6 9 11 11 9 8 11 16 15 16 13 13 13 10 10 12 11 11 9 10 11 12 10 9 9 10 8 8 5 6 6 6 6 7 6 6 5 4 4 4 4 4 4 4 3 5 3 3 2 1 2 1 0 0 1 2 3 5 4 4 4 4 4 4 4 5 6 5 5
5 1 1 1 5 4 3 2 1 3 5 9 7 6 4 5 4 6 7 6 3 1 3 9 9 8 8 7 7 8 9 9 9 9 9 13 12 11 11 12 11 11 9 12 11 11 10 10 11 11 8 9 9 9 8 7 6 7 6 7 6 7 7 6 7 7 6 5 4 5 4 3 3 3 4 3 3 4 3 3 2 2 1 2 3 4 5 5 4 3 5 6 6 5 5 6 5
1 3 4 3 3 1 2 1 3 4 7 6 4 3 5 6 9 8 7 4 11 5 4 4 3 4 6 9 9 9 9 10 10 10 10 10 13 14 14 13 12 11 12 13 14 12 11 10 12 12 10 9 10 9 9 8 6 7 7 7 6 6 6 7 7 7 6 6 5 5 4 4 3 3 4 3 3 3 3 2 1 1 1 1 2 2 3 4 6 7 6 5 5 5 5 5 6
4 4 4 2 1 1 3 3 2 3 2 3 2 2 3 4 6 6 6 7 5 4 4 5 5 7 7 8 6 6 7 11 10 11 11 11 13 14 17 16 15 14 14 15 14 13 12 10 12 13 11 10 9 9 10 8 7 7 6 6 6 6 6 6 6 7 6 6 6 5 5 5 5 4 3 4 3 3 2 2 2 1 0 1 2 3 3 3 4 4 5 7 6 5 5 5 6
6 4 7 8 5 2 3 2 3 3 2 2 4 4 3 1 5 6 5 5 5 4 4 3 4 7 6 8 6 7 7 7 10 11 12 12 15 16 15 17 16 16 16 15 14 14 13 11 13 13 11 9 10 11 8 10 8 7 5 6 6 5 7 6 5 6 6 6 5 6 5 4 4 3 3 2 2 2 2 1 0 0 1 2 2 3 3 3 3 3 3 5 6 6 6 6 6
2 3 3 4 7 5 9 4 1 2 2 5 1 3 2 3 8 12 11 8 10 8 9 3 2 2 2 3 6 6 6 7 10 12 11 13 16 16 15 15 15 14 16 14 15 14 14 14 14 15 13 12 12 10 10 10 8 7 6 7 7 6 5 5 5 4 5 6 5 6 5 4 4 3 2 2 2 3 3 2 1 1 2 2 3 2 2 2 3 4 5 5 6 5 7 7 7
2 5 3 7 5 4 1 2 0 5 3 6 2 4 7 5 6 9 8 7 8 7 5 6 1 2 0 4 5 5 3 1 1 3 11 12 11 14 15 13 11 12 13 14 15 14 15 14 13 14 12 12 12 12 11 10 9 8 7 7 6 6 6 6 6 5 6 5 5 4 4 4 3 3 2 2 1 1 2 2 1 2 2 3 3 3 3 3 3 3 4 4 4 4 5 6 6
2 4 7 8 5 4 4 4 0 2 4 5 2 3 5 3 5 4 5 4 7 10 8 4 6 5 2 3 5 5 3 2 6 3 7 11 12 12 11 12 14 15 15 13 14 13 12 13 14 14 13 13 12 11 11 10 10 9 8 8 7 8 7 6 6 6 5 6 4 4 3 3 3 3 2 2 1 1 1 1 2 3 4 4 4 4 4 4 3 3 3 3 3 3 4 5 6
5 8 3 3 2 3 3 2 1 0 2 3 2 5 4 5 7 4 5 8 8 9 3 4 3 4 2 7 4 1 3 4 3 1 8 10 9 9 11 11 12 13 13 13 13 11 11 9 11 13 13 14 14 11 10 9 10 8 8 9 9 7 6 6 5 5 5 6 5 4 4 4 3 3 3 2 1 1 2 3 3 3 2 2 2 3 3 3 3 3 3 4 3 3 4 5 5
4 2 5 1 1 4 1 2 1 2 3 1 5 1 5 3 3 5 8 2 5 7 9 11 11 13 11 6 5 8 10 9 4 1 5 13 12 12 12 11 12 12 12 12 13 11 12 11 11 10 9 10 11 11 10 11 10 8 8 7 7 7 6 6 5 6 6 6 5 5 4 4 4 3 3 2 2 3 3 4 3 3 2 2 2 2 2 3 3 3 3 3 3 3 4 5 6
5 5 3 2 0 1 4 0 0 1 1 1 1 3 3 3 1 1 2 4 2 4 6 6 7 8 9 8 10 10 7 10 11 12 2 10 10 12 10 11 13 14 12 12 13 13 13 11 11 12 12 12 12 12 11 11 9 9 9 10 8 7 7 6 5 5 6 5 4 4 5 4 3 4 3 3 3 4 4 4 4 4 4 4 4 4 3 3 2 3 3 3 3 3 4 5 4
4 4 6 5 2 5 4 10 0 3 2 2 0 8 7 6 5 9 5 3 6 4 6 6 8 8 8 7 5 5 7 7 7 7 10 3 7 7 9 9 9 10 10 11 11 11 12 12 13 13 12 13 14 13 13 11 10 9 11 9 8 7 7 6 6 5 6 5 4 4 4 4 4 4 3 4 4 4 4 4 4 4 4 4 4 4 4 3 3 3 3 3 4 4 5 5 5
Wind_Direction
324 305 281 275 251 239 323 229 71 285 112 251 272 223 258 228 236 239 148 106 79 57 75 57 58 65 81 100 94 77 35 61 327 130 159 134 113 123 124 120 115 125 130 140 135 116 121 125 132 138 141 145 144 148 148 145 143 144 141 135 129 128 127 125 124 119 116 117 113 111 111 111 108 104 102 105 108 106 104 109 110 114 115 116 114 110 107 106 106 108 109 109 109 107 107 108 115
314 318 310 288 258 210 282 173 105 280 216 308 257 226 247 251 287 150 73 74 90 103 74 67 68 98 104 112 102 83 59 65 66 86 98 109 104 113 122 114 125 127 137 138 124 121 125 134 135 133 133 136 140 144 146 144 145 146 144 141 138 137 134 131 128 123 120 119 119 118 117 116 113 108 108 108 107 106 105 107 109 110 114 115 114 112 110 109 110 112 115 114 112 110 109 112 119
326 342 322 314 232 189 280 322 255 206 200 249 266 226 279 278 236 105 92 88 87 93 78 62 60 66 84 81 59 86 104 95 95 94 104 126 111 146 121 124 127 129 130 129 126 122 118 126 127 129 134 135 135 139 142 143 147 148 146 144 143 143 139 134 132 126 124 122 120 122 122 120 119 115 113 108 102 105 110 107 109 116 115 110 113 114 112 111 112 115 115 119 116 113 112 115 123
318 254 234 11 333 98 294 326 187 200 227 246 289 293 281 100 91 92 94 100 92 84 72 66 67 343 86 74 90 73 83 89 95 112 108 115 114 136 121 112 109 113 119 126 114 105 108 128 130 132 134 135 135 135 129 131 139 143 143 142 143 144 142 135 131 128 126 124 122 121 120 120 122 121 117 110 101 103 106 110 111 109 110 117 111 111 112 113 115 114 118 124 118 115 117 119 126
310 276 188 243 288 254 173 195 194 170 237 212 249 345 331 53 88 86 99 111 104 101 98 101 86 48 61 88 85 90 100 82 64 74 91 86 108 119 122 114 119 121 124 114 99 93 108 123 118 124 130 132 132 132 141 139 136 138 144 142 145 144 141 134 132 131 127 124 122 123 123 120 123 123 122 114 104 102 105 111 118 116 108 107 105 106 106 112 115 117 119 122 118 118 120 123 130
260 285 239 145 210 12 349 304 271 241 239 250 275 230 82 112 106 119 105 80 93 86 102 92 101 96 69 54 56 95 134 98 112 77 110 106 114 121 120 123 120 123 118 98 96 95 101 115 106 106 113 125 128 129 132 144 143 142 144 145 145 141 140 132 130 133 127 126 125 124 122 121 121 126 124 118 109 101 94 101 102 108 108 99 103 104 106 107 114 116 119 123 118 120 123 127 133
271 16 307 137 287 256 194 251 254 248 258 231 238 270 208 110 111 99 76 64 49 85 87 104 109 99 86 80 63 53 60 87 83 103 107 123 116 117 112 110 114 117 114 94 88 89 96 103 95 91 94 105 119 118 118 128 140 144 145 140 139 135 138 134 132 132 130 124 125 126 125 122 122 125 123 120 112 106 101 98 95 97 99 99 100 106 104 105 106 110 118 125 118 121 125 132 139
238 294 248 125 268 161 252 242 262 256 268 226 272 265 199 159 136 110 88 62 120 98 121 117 92 86 79 100 96 78 81 87 106 106 109 116 115 112 114 118 121 124 113 103 102 115 116 84 85 88 85 80 103 124 115 120 131 139 144 142 132 134 138 131 127 127 126 127 129 128 123 119 123 127 125 116 114 112 108 101 94 94 95 100 102 100 102 110 114 122 129 123 121 125 132 139 145
239 170 264 334 274 282 255 232 244 251 264 266 274 318 115 143 100 112 132 128 140 105 109 107 101 93 113 85 83 102 96 107 106 109 111 112 112 118 121 129 134 132 119 113 109 95 85 87 83 87 89 87 81 86 114 122 129 135 137 139 133 124 125 126 123 122 122 125 126 125 120 119 119 117 113 113 115 111 108 105 101 98 99 105 106 105 111 117 124 127 130 124 126 132 138 146 145
255 165 273 205 187 251 252 267 247 244 245 243 243 241 133 120 137 136 124 122 110 77 91 94 98 107 115 101 113 121 121 116 115 111 115 119 125 118 117 125 137 140 131 123 119 112 115 97 84 85 85 87 87 85 89 120 136 140 142 130 120 139 137 116 123 119 120 120 119 116 112 110 111 112 114 116 118 113 108 106 107 106 106 109 110 111 113 120 125 132 131 126 130 134 141 147 139
267 194 201 324 287 267 249 263 253 263 256 246 252 207 150 134 118 105 103 112 105 113 110 105 102 119 117 103 96 116 121 119 114 118 123 115 112 117 123 135 135 128 124 123 118 117 109 106 95 91 94 92 92 82 83 107 117 122 125 131 145 132 126 128 129 125 123 121 116 113 112 112 114 114 113 115 119 108 109 111 114 113 110 113 114 114 117 121 127 134 130 128 130 133 138 142 127
281 238 144 213 249 221 252 246 257 263 257 260 273 209 160 117 99 114 117 102 112 140 133 126 114 116 101 120 129 120 104 112 121 125 120 122 121 126 119 116 122 122 121 123 125 121 119 115 102 100 99 98 93 91 88 87 100 115 117 124 130 127 128 131 130 128 125 121 116 115 114 114 113 112 110 110 110 111 112 117 120 117 116 114 114 117 120 124 129 124 127 127 130 129 134 135 121
226 268 265 242 233 221 254 267 261 263 284 248 177 213 140 114 136 126 168 113 119 114 88 112 133 112 125 123 127 108 104 113 123 123 127 131 133 119 114 115 118 121 121 120 117 128 140 128 114 108 111 103 100 96 91 94 98 111 120 125 131 129 132 134 133 127 124 123 120 118 117 117 116 114 115 115 116 117 117 121 122 118 114 115 116 119 122 128 130 133 131 132 133 133 133 129 118
199 198 200 264 258 249 261 259 273 301 292 254 170 153 161 98 137 113 107 110 84 51 114 126 119 110 119 116 119 114 118 118 123 130 131 129 127 125 122 125 119 110 119 127 130 134 130 126 124 131 121 113 108 97 95 92 96 101 109 115 117 126 132 134 131 125 125 125 125 124 121 119 120 120 121 121 122 120 120 121 124 123 119 120 122 125 127 130 136 143 143 141 138 137 133 130 122
223 264 252 233 279 291 257 261 270 271 266 243 112 113 116 133 93 55 83 86 79 106 103 111 127 121 167 140 146 136 136 122 109 113 121 124 123 125 127 122 120 126 128 125 127 132 126 117 131 139 134 131 122 113 104 100 102 100 108 114 116 125 130 133 128 125 124 128 130 129 126 124 125 126 125 125 126 125 122 120 126 127 125 126 129 131 131 135 141 146 146 144 141 139 142 135 141
194 229 219 265 272 278 279 282 287 287 272 94 314 109 91 59 52 80 90 100 122 53 77 98 174 134 151 136 135 129 125 118 115 109 111 113 109 99 95 89 103 124 129 127 125 128 127 131 135 133 128 130 128 126 113 107 111 107 104 111 114 116 99 86 113 126 125 128 131 130 127 126 125 128 131 128 129 127 120 121 131 134 131 131 132 137 137 138 144 147 147 142 141 142 142 150 163
235 189 279 291 281 275 258 251 324 296 289 63 81 59 67 84 90 103 125 107 92 78 65 56 66 121 122 116 119 122 121 118 113 110 104 97 94 92 79 80 91 78 71 112 137 141 139 134 133 128 130 132 129 123 118 110 113 111 102 104 107 111 120 134 150 115 117 121 125 125 118 112 117 121 122 130 131 129 124 129 136 140 136 135 139 141 143 143 146 150 145 149 158 154 160 166 171
230 214 208 264 242 264 261 268 286 94 22 132 106 164 100 118 91 67 78 82 93 91 85 70 68 80 105 116 116 120 124 124 128 124 130 120 113 104 100 106 86 93 85 69 59 101 116 125 125 129 126 123 122 118 117 119 122 113 112 111 107 109 116 120 120 118 115 113 121 120 118 123 120 126 130 133 127 136 131 133 140 146 141 140 143 144 147 151 151 153 155 160 171 176 162 152 180
204 237 163 225 232 249 265 282 297 71 316 267 150 134 76 165 104 350 87 99 104 98 99 94 88 92 93 108 118 123 126 134 141 139 141 135 133 135 140 132 98 93 62 45 29 62 87 106 106 101 115 127 117 121 122 119 119 127 134 136 127 132 143 124 122 129 123 135 138 139 144 132 125 128 124 118 121 132 135 139 142 149 146 146 144 145 149 157 158 159 163 171 180 162 151 172 219
233 203 230 241 242 262 265 277 268 83 15 330 21 108 69 151 80 342 114 128 128 125 119 113 122 122 123 123 125 130 136 148 150 138 136 136 137 133 133 130 109 97 86 83 71 55 69 108 130 115 103 107 107 112 105 92 101 87 85 78 116 133 131 134 157 152 162 163 161 150 93 91 89 84 99 106 71 12 131 139 143 147 150 149 145 141 142 153 166 164 167 166 146 159 171 250 227
176 222 215 240 254 257 287 343 315 19 70 355 44 21 88 136 111 141 114 115 166 152 149 146 146 143 138 136 135 139 146 157 125 121 123 123 128 132 134 136 135 131 112 63 50 40 52 80 89 122 122 114 113 108 108 110 92 86 73 67 70 66 59 64 61 52 45 62 84 82 96 95 102 102 102 102 94 106 36 312 141 129 132 135 133 127 148 180 174 175 165 151 158 174 177 232 232
161 198 229 252 273 285 292 30 356 6 39 34 62 352 58 231 104 107 136 111 15 247 156 145 149 141 136 139 142 141 153 138 120 119 114 116 116 114 102 102 102 101 95 87 78 19 27 84 92 85 91 100 105 106 105 109 104 95 83 80 73 51 65 64 63 68 59 58 67 87 96 104 102 113 128 118 104 94 116 217 319 136 142 145 138 159 181 189 200 196 182 174 183 187 191 216 229
232 240 230 235 238 247 269 38 9 11 352 14 19 244 107 147 68 67 88 119 77 25 146 132 118 122 127 132 138 143 146 130 122 120 119 117 110 112 109 114 114 103 96 120 120 58 15 43 66 73 77 110 109 108 98 92 92 99 93 90 85 65 62 66 65 103 100 80 73 81 98 118 129 128 114 101 116 127 133 176 201 227 151 162 172 165 200 202 199 207 199 200 189 189 202 210 220
203 226 222 234 238 233 118 78 42 5 341 350 327 172 304 129 132 46 90 102 85 76 93 110 115 120 125 128 139 145 148 134 131 127 125 127 129 125 116 113 114 113 101 92 57 67 65 63 56 55 53 93 122 117 116 121 123 110 103 92 88 90 79 68 73 116 105 104 93 55 85 97 117 130 126 131 125 111 133 107 97 256 174 172 192 178 193 213 200 215 217 212 202 203 205 210 217
210 231 248 264 261 249 90 71 45 31 314 353 28 8 356 157 134 170 131 107 106 112 107 106 121 125 130 134 142 146 140 130 128 123 103 107 110 108 102 106 102 98 96 87 87 80 90 81 61 50 41 43 111 119 115 114 111 109 107 105 104 101 96 92 83 95 87 105 123 136 138 118 120 147 133 148 129 153 153 162 185 226 270 172 218 208 203 202 210 210 217 219 212 216 213 200 199
206 244 198 243 239 142 127 125 169 176 326 21 54 317 323 295 20 25 100 126 115 117 121 132 132 135 139 146 149 153 144 144 128 117 125 118 108 100 102 105 101 96 122 81 60 70 81 71 71 58 38 30 78 112 124 125 133 121 113 113 121 109 110 97 82 79 91 96 93 99 109 144 172 146 123 130 133 157 154 161 189 228 186 120 135 278 264 205 213 217 225 217 221 230 233 224 184
215 228 241 263 32 40 153 121 148 111 232 39 190 247 288 307 14 301 125 124 127 128 131 140 140 143 146 148 153 155 139 147 136 134 113 113 111 113 121 103 107 125 101 99 77 57 67 71 63 59 39 35 77 110 118 130 131 123 128 132 124 131 130 114 82 84 91 95 108 101 104 149 143 112 128 127 152 163 143 162 207 226 202 166 158 201 325 282 222 232 226 218 223 220 237 209 177
212 267 325 294 168 194 90 81 6 127 211 253 174 224 254 281 258 220 250 155 160 139 132 136 141 141 147 149 148 147 127 140 135 128 131 128 133 134 127 127 128 115 108 91 88 93 79 77 70 52 45 50 53 64 80 76 122 132 134 138 139 138 126 125 137 154 124 117 122 128 137 121 92 101 150 164 160 139 163 168 190 222 223 179 172 208 254 305 290 269 261 244 233 211 219 204 177
52 56 297 310 330 279 134 146 195 172 232 192 137 302 306 280 245 213 186 206 143 157 137 145 142 144 145 147 140 136 137 144 136 131 142 143 143 134 134 142 135 117 118 124 111 91 95 86 80 64 65 52 58 59 59 56 59 98 125 138 139 140 124 137 153 166 155 150 142 147 154 149 163 181 180 192 200 160 157 167 158 200 204 188 138 243 240 265 326 299 285 269 268 260 177 214 164
109 307 267 331 334 288 203 166 188 176 194 177 116 222 274 262 258 256 197 186 144 143 150 143 146 144 146 147 144 136 140 142 141 146 150 146 138 136 135 143 125 128 127 115 97 95 103 104 101 80 63 59 56 61 62 58 67 85 87 70 73 133 149 157 160 164 159 133 136 161 172 170 168 166 191 177 169 144 117 106 62 132 170 171 153 168 283 289 274 271 282 294 268 260 179 210 141
36 279 168 215 275 272 224 186 174 201 175 141 118 163 276 250 246 249 233 142 148 157 169 156 142 149 153 152 150 147 154 152 154 156 154 147 136 141 138 134 128 126 116 108 112 125 104 108 102 82 80 70 67 62 67 70 77 78 73 70 34 55 138 147 156 164 151 147 132 135 165 195 193 162 173 161 142 142 98 152 222 214 213 196 158 153 196 230 245 252 271 297 271 231 166 220 167
190 26 284 297 190 257 255 197 167 197 196 137 112 201 236 255 279 266 219 152 142 155 180 181 143 150 157 157 152 153 158 156 157 160 156 149 143 148 141 141 136 131 133 137 132 119 115 108 100 103 88 89 82 84 90 96 88 83 85 78 54 57 67 98 128 141 144 111 126 139 168 203 181 186 159 152 158 167 151 191 235 219 219 203 175 177 188 208 208 282 262 235 277 265 247 196 190
224 159 252 249 195 244 269 190 183 183 163 139 143 199 244 281 265 352 175 155 147 149 182 190 143 156 157 157 156 155 156 154 160 164 156 147 152 149 146 144 145 146 141 141 143 138 131 126 118 115 121 120 116 114 97 105 112 116 118 103 81 67 68 52 4 28 84 102 105 108 118 97 54 109 151 142 150 158 98 15 240 233 200 190 162 187 183 217 202 298 287 269 263 279 248 262 211
292 185 211 226 214 253 270 227 178 166 137 194 179 190 226 228 312 60 48 99 127 145 184 188 147 162 161 157 158 159 162 162 167 169 160 152 157 148 148 148 147 147 147 145 153 148 149 149 146 145 147 146 153 155 166 156 146 149 144 136 100 91 70 40 49 63 78 96 95 88 76 52 77 92 122 120 135 120 124 155 272 228 222 210 137 263 222 197 180 230 275 297 305 305 284 26 333
246 343 349 308 276 244 242 158 182 147 158 181 195 201 252 254 189 217 158 139 148 187 193 187 161 159 165 158 160 163 165 169 173 168 160 156 156 147 149 148 146 146 148 152 148 150 146 153 152 150 142 156 165 171 181 175 109 87 69 95 98 96 69 68 61 62 60 61 93 103 80 63 51 31 40 336 57 132 126 145 181 261 298 185 189 242 242 202 191 211 237 305 316 311 322 113 201
3 342 205 265 280 300 285 231 166 179 174 176 162 197 231 267 210 202 177 167 159 193 186 184 165 156 164 164 158 164 171 177 175 163 162 158 158 151 152 151 149 150 154 150 151 150 154 154 144 140 156 172 177 166 82 79 66 104 86 60 68 52 76 77 73 83 62 52 53 64 69 107 78 41 360 64 17 34 118 142 138 191 236 319 151 190 221 210 182 192 210 245 278 299 290 120 112
50 42 8 321 337 339 349 39 25 71 119 200 179 190 216 262 233 229 275 288 170 170 201 180 180 165 164 166 169 166 177 181 176 166 164 163 157 152 153 151 151 156 155 155 151 160 162 162 150 158 192 174 156 141 134 112 115 92 67 74 105 86 90 86 87 90 85 77 59 63 60 73 102 124 187 97 91 279 160 143 146 188 185 214 178 227 170 183 197 152 188 187 221 244 279 246 116
38 77 30 336 339 302 304 260 96 13 121 230 179 179 241 246 290 298 150 210 214 185 199 212 178 180 174 167 173 168 178 190 154 156 162 157 152 153 153 154 156 157 169 160 159 166 168 160 158 178 191 185 157 169 162 125 155 156 146 141 125 100 92 99 98 108 111 97 97 69 69 69 55 34 2 301 184 173 194 176 185 203 177 185 187 172 190 218 225 288 238 234 214 215 247 244 227
350 69 71 356 298 293 331 31 29 11 54 311 10 357 298 300 293 294 299 177 232 226 187 199 198 180 182 175 178 183 169 165 155 168 159 163 159 155 159 160 166 163 165 166 164 161 162 162 167 171 192 173 184 163 140 123 107 106 112 114 131 93 92 142 147 151 137 154 122 100 93 67 56 19 360 1 347 321 325 334 280 183 177 147 169 203 182 202 208 226 220 213 245 297 271 258 202
82 357 42 229 271 323 307 322 51 43 84 296 329 335 292 300 305 289 263 264 211 219 214 212 203 186 176 179 177 178 189 159 162 166 166 167 164 164 159 162 165 162 163 164 167 166 163 166 168 167 186 167 175 163 121 117 109 105 101 114 105 132 152 128 93 66 98 90 97 102 86 88 58 12 20 1 4 16 52 66 33 35 89 143 180 251 267 233 211 203 217 216 184 224 237 268 203
322 322 214 264 297 279 321 242 319 124 347 180 337 349 324 291 281 281 274 246 242 216 220 220 220 192 185 169 153 169 177 166 162 172 167 163 166 169 170 169 161 159 165 171 170 170 170 169 168 167 172 173 167 143 131 124 104 79 73 63 61 75 58 75 80 80 89 106 102 94 111 91 74 59 19 343 25 18 360 32 37 39 24 8 27 28 222 238 235 227 205 196 196 212 235 238 253
309 271 240 240 241 275 285 146 41 27 332 293 188 355 295 255 248 253 258 276 253 210 197 208 211 207 182 173 179 170 168 187 160 174 177 169 170 170 161 161 163 163 170 177 175 166 163 163 162 162 160 165 149 147 143 133 141 137 132 123 124 118 119 134 127 160 120 108 155 176 144 146 125 107 336 4 20 16 7 5 37 30 8 1 358 345 323 319 287 237 233 216 223 218 225 229 244
120 274 230 234 252 263 265 272 25 25 180 278 131 200 267 309 284 247 264 235 239 213 185 200 201 203 204 201 197 193 185 185 185 136 168 162 162 162 167 168 169 169 176 173 172 165 159 158 162 162 164 165 154 153 147 140 144 155 161 171 178 164 160 193 174 151 137 153 109 97 141 139 150 154 198 91 353 8 15 18 9 4 356 349 332 353 335 308 301 283 246 210 221 222 195 237 244
258 256 246 244 220 234 252 250 166 225 207 300 192 151 215 297 282 274 237 254 226 227 202 183 191 204 202 203 203 201 203 185 169 150 153 166 165 166 172 175 174 177 174 169 170 168 163 160 161 167 163 165 165 156 159 156 163 175 174 175 180 167 163 167 158 150 144 139 135 162 173 198 170 170 177 174 183 127 12 10 25 27 8 349 354 347 324 311 327 331 323 279 251 219 198 214 243
206 237 250 254 291 1 339 224 109 191 351 290 283 216 268 255 268 286 280 243 250 238 219 210 202 189 198 204 204 205 202 193 180 157 155 163 169 174 172 174 177 171 168 171 174 172 166 159 162 164 164 165 169 164 165 174 172 178 172 166 148 145 157 159 156 147 138 141 136 163 136 211 132 104 157 175 175 177 213 29 31 3 356 344 345 339 340 341 337 332 331 333 323 257 214 242 249
244 192 245 25 2 345 14 6 40 359 262 273 262 207 225 276 276 292 284 276 250 224 218 205 199 206 186 192 206 207 199 197 186 167 155 165 170 173 176 175 170 169 172 172 169 162 162 161 163 169 168 168 171 169 172 178 178 165 160 160 144 153 149 158 142 154 153 151 151 177 190 189 192 199 202 135 172 193 141 100 13 354 338 333 336 331 328 332 336 344 348 344 337 322 285 231 223
190 123 48 11 8 299 315 99 32 27 300 263 245 245 204 275 258 229 255 226 264 230 183 192 201 198 196 190 187 177 191 191 186 166 156 163 172 173 169 168 171 164 163 166 165 166 161 164 168 173 173 167 170 174 171 186 173 171 166 173 159 166 168 157 151 164 162 157 166 189 184 214 186 197 186 165 162 167 157 143 158 329 333 324 324 315 307 308 317 330 330 338 336 332 325 301 265
129 104 136 41 329 336 339 332 91 213 265 261 255 263 229 233 298 280 257 289 314 111 168 188 182 182 188 195 195 183 169 178 170 163 158 154 154 165 165 165 165 168 161 164 167 166 163 166 169 172 172 171 173 173 176 182 172 177 172 178 171 179 166 164 166 174 173 178 180 186 201 171 191 164 176 175 192 201 171 179 183 199 237 265 276 285 299 310 319 336 336 329 321 322 322 326 315
99 62 44 79 290 35 318 143 247 203 221 244 236 230 292 257 228 251 279 274 291 329 127 149 161 218 208 193 192 186 161 163 166 167 162 152 154 158 169 169 167 171 168 167 169 169 165 162 171 170 180 173 174 172 176 182 169 181 176 179 176 175 168 170 164 177 180 175 175 175 182 198 207 186 199 183 205 177 140 123 120 198 302 314 317 330 326 333 333 329 324 313 308 310 311 316 311
137 153 140 121 209 237 255 252 207 254 278 307 284 315 260 255 287 242 259 260 232 229 224 176 170 173 193 211 198 179 163 164 168 168 164 160 160 162 168 170 174 176 174 170 169 168 166 165 171 175 179 177 169 171 176 176 182 182 178 176 173 165 171 169 172 175 179 171 172 183 184 187 179 190 178 167 162 140 122 135 118 127 152 3 356 353 346 341 337 323 314 314 309 303 308 303 296
208 172 159 181 164 155 218 211 233 217 220 269 328 16 231 282 241 293 309 294 296 297 238 256 211 208 167 192 172 162 164 163 158 166 168 167 171 170 171 172 175 176 174 170 168 168 168 162 172 176 175 175 171 175 172 179 179 185 178 178 170 166 172 173 182 169 168 167 183 183 186 176 158 187 163 202 166 146 157 130 125 47 350 326 317 313 311 321 320 325 319 320 317 317 312 309 302
239 197 178 131 215 181 234 185 195 270 346 335 301 193 241 217 275 306 306 316 319 329 322 120 267 258 105 140 160 172 178 179 154 164 179 175 173 174 173 176 175 173 172 170 170 169 170 171 170 177 172 175 176 170 178 175 179 178 175 174 176 170 169 167 178 164 174 172 176 165 179 166 166 150 152 126 151 146 149 166 161 219 244 249 252 246 260 294 304 303 297 297 301 309 311 309 303
289 332 217 217 186 178 236 341 59 88 37 262 181 308 305 304 313 279 285 293 276 293 297 313 184 232 355 136 125 115 120 78 341 155 175 176 181 175 175 172 169 169 168 174 172 175 174 166 171 172 173 173 175 177 172 174 172 173 183 175 169 172 171 177 183 179 177 174 159 152 152 174 154 148 144 130 144 148 163 164 192 227 244 242 239 234 226 230 239 265 276 281 283 296 304 308 313
198 246 257 266 240 140 132 219 222 188 214 259 140 230 292 354 295 310 350 316 287 279 295 2 356 360 237 211 154 140 143 160 146 154 143 177 177 179 172 172 171 172 175 171 173 175 169 173 169 171 172 172 177 175 172 171 172 178 179 179 179 176 178 181 179 180 171 156 149 143 139 131 157 171 162 195 154 144 148 193 214 246 259 268 262 261 256 248 234 234 241 258 270 290 299 302 303
209 223 228 283 13 348 308 86 276 180 229 274 279 205 245 194 252 313 288 308 341 337 9 311 16 61 13 300 312 151 162 143 174 122 132 166 172 175 174 175 173 174 169 168 170 164 172 170 171 171 175 174 175 175 173 172 174 180 181 180 178 178 177 178 180 170 164 157 158 158 157 186 192 177 154 144 160 220 242 248 230 224 235 256 263 254 243 236 226 242 247 250 258 273 282 284 291
270 344 338 251 127 172 127 187 202 134 244 290 293 213 244 196 227 263 307 22 339 6 23 17 16 32 35 9 6 21 16 350 338 285 127 169 164 177 176 169 169 169 168 170 169 170 170 170 170 174 170 170 169 170 171 175 181 176 177 171 179 175 175 174 172 161 165 160 166 163 179 177 189 170 164 172 185 209 221 233 233 225 227 244 263 275 273 275 279 271 266 273 270 270 272 275 283
328 332 310 360 176 170 116 49 110 168 204 197 237 317 278 266 205 88 13 324 12 34 35 34 38 38 47 43 23 16 28 30 6 334 312 154 175 173 177 176 177 175 170 170 171 174 173 170 172 173 168 171 172 175 174 180 174 176 169 178 179 176 178 170 170 159 161 170 164 172 178 187 171 184 176 198 216 225 232 225 223 225 231 237 241 253 252 245 250 262 270 267 275 273 275 276 274
336 326 290 247 261 303 303 280 27 85 96 240 53 263 267 249 313 316 11 311 49 25 41 47 44 40 41 42 46 35 31 30 356 2 342 32 156 196 181 182 177 166 174 174 179 174 173 175 178 176 174 173 175 178 180 175 175 173 177 178 177 176 171 170 169 166 167 167 173 174 181 162 173 205 176 209 221 226 217 222 233 242 242 241 238 235 242 230 240 259 276 274 284 282 280 280 286